TimeWET,TemperatureF,Dew PointF,Humidity,Sea Level PressureIn,VisibilityMPH,Wind Direction,Wind SpeedMPH,Gust SpeedMPH,PrecipitationIn,Events,Conditions,WindDirDegrees,DateUTC
12:00 AM,59,57,92,30.05,5,WSW,2.3,,,,,250,2013-11-14 00:00:00
12:00 AM,59.0,57.2,94,30.06,5.0,Variable,2.3,-,N/A,,Unknown,0,2013-11-14 00:00:00
12:30 AM,60.8,59.0,94,30.06,-9999.0,SSW,3.5,-,N/A,,Clear,210,2013-11-14 00:30:00
1:00 AM,59.0,57.2,94,30.06,-9999.0,WSW,3.5,-,N/A,,Clear,250,2013-11-14 01:00:00
1:30 AM,59.0,57.2,94,30.06,5.6,Variable,2.3,-,N/A,,Unknown,0,2013-11-14 01:30:00
2:00 AM,59.0,59.0,100,30.06,-9999.0,SW,4.6,-,N/A,,Clear,230,2013-11-14 02:00:00
2:30 AM,60.8,57.2,88,30.06,-9999.0,SW,5.8,-,N/A,,Clear,230,2013-11-14 02:30:00
3:00 AM,57,55,92,30.06,6,SW,4.6,,,,,230,2013-11-14 03:00:00
3:00 AM,57.2,55.4,94,30.06,-9999.0,SW,4.6,-,N/A,,Clear,230,2013-11-14 03:00:00
3:30 AM,57.2,55.4,94,30.06,5.0,WSW,4.6,-,N/A,,Unknown,240,2013-11-14 03:30:00
4:00 AM,57.2,57.2,100,30.06,0.7,West,3.5,-,N/A,,Mostly Cloudy,260,2013-11-14 04:00:00
4:30 AM,55.4,55.4,100,30.06,0.1,WSW,3.5,-,N/A,Fog,Fog,250,2013-11-14 04:30:00
5:00 AM,55.4,55.4,100,30.06,0.3,Variable,2.3,-,N/A,,Mostly Cloudy,0,2013-11-14 05:00:00
5:30 AM,55.4,55.4,100,30.06,-9999.0,SSW,3.5,-,N/A,,Mostly Cloudy,210,2013-11-14 05:30:00
6:00 AM,54,54,100,30.07,2,WSW,3.5,,,,Clear,250,2013-11-14 06:00:00
6:00 AM,55.4,55.4,100,30.06,0.5,WSW,3.5,-,N/A,,Mostly Cloudy,240,2013-11-14 06:00:00
6:30 AM,53.6,53.6,100,30.06,3.1,West,2.3,-,N/A,,Mostly Cloudy,280,2013-11-14 06:30:00
7:00 AM,53.6,53.6,100,30.06,4.3,West,1.2,-,N/A,,Scattered Clouds,260,2013-11-14 07:00:00
7:30 AM,53.6,53.6,100,30.06,5.6,Variable,1.2,-,N/A,,Scattered Clouds,0,2013-11-14 07:30:00
8:00 AM,55.4,55.4,100,30.09,6.2,ENE,1.2,-,N/A,,Partly Cloudy,70,2013-11-14 08:00:00
8:30 AM,59.0,55.4,88,30.09,4.3,Variable,2.3,-,N/A,,Unknown,0,2013-11-14 08:30:00
8:54 AM,60.8,55.4,82,30.09,2.5,NNE,3.5,-,N/A,,Scattered Clouds,20,2013-11-14 08:54:00
9:16 AM,62,57,79,30.08,2,North,3.5,,,,Mist,0,2013-11-14 09:16:00
9:30 AM,60.8,57.2,88,30.09,1.9,North,3.5,-,N/A,,Scattered Clouds,360,2013-11-14 09:30:00
10:00 AM,64.4,57.2,77,30.09,1.9,Variable,2.3,-,N/A,,Scattered Clouds,0,2013-11-14 10:00:00
10:30 AM,64.4,59.0,83,30.09,2.5,NNW,3.5,-,N/A,,Scattered Clouds,330,2013-11-14 10:30:00
10:35 AM,66.2,59.0,78,30.09,3.1,North,4.6,-,N/A,,Partly Cloudy,350,2013-11-14 10:35:00
11:00 AM,66.2,57.2,73,30.09,3.7,North,4.6,-,N/A,,Partly Cloudy,350,2013-11-14 11:00:00
11:30 AM,69.8,57.2,64,30.06,5.6,North,4.6,-,N/A,,Unknown,360,2013-11-14 11:30:00
12:00 PM,71,57,51,29.99,6,North,4.6,,,,,350,2013-11-14 12:00:00
12:00 PM,71.6,57.2,60,30.04,-9999.0,North,4.6,-,N/A,,Clear,350,2013-11-14 12:00:00
12:30 PM,71.6,55.4,57,30.04,-9999.0,North,5.8,-,N/A,,Clear,350,2013-11-14 12:30:00
1:00 PM,73.4,53.6,50,30.01,-9999.0,North,4.6,-,N/A,,Clear,350,2013-11-14 13:00:00
1:30 PM,75.2,53.6,47,30.01,-9999.0,NW,3.5,-,N/A,,Clear,320,2013-11-14 13:30:00
2:00 PM,75.2,50.0,41,30.01,-9999.0,NNW,5.8,-,N/A,,Clear,340,2013-11-14 14:00:00
2:30 PM,77.0,48.2,36,29.98,-9999.0,North,5.8,-,N/A,,Clear,350,2013-11-14 14:30:00
3:00 PM,77,48,25,29.92,6,NNE,6.9,,,,Clear,20,2013-11-14 15:00:00
3:00 PM,77.0,48.2,36,29.98,6.2,NNE,6.9,-,N/A,,Partly Cloudy,30,2013-11-14 15:00:00
3:30 PM,77.0,48.2,36,29.98,6.2,Variable,5.8,-,N/A,,Partly Cloudy,0,2013-11-14 15:30:00
4:00 PM,77.0,48.2,36,29.98,6.2,NE,6.9,-,N/A,,Partly Cloudy,40,2013-11-14 16:00:00
4:30 PM,77.0,48.2,36,29.98,6.2,North,5.8,-,N/A,,Partly Cloudy,360,2013-11-14 16:30:00
5:00 PM,77.0,48.2,36,29.98,6.2,NNE,4.6,-,N/A,,Partly Cloudy,30,2013-11-14 17:00:00
5:30 PM,75.2,48.2,38,29.98,6.2,NE,8.1,-,N/A,,Partly Cloudy,40,2013-11-14 17:30:00
6:00 PM,73,46,27,29.94,6,NE,6.9,,,,Scattered Clouds,40,2013-11-14 18:00:00
6:00 PM,73.4,46.4,38,30.01,6.2,NE,6.9,-,N/A,,Partly Cloudy,40,2013-11-14 18:00:00
6:30 PM,71.6,46.4,41,30.01,6.2,NE,6.9,-,N/A,,Partly Cloudy,40,2013-11-14 18:30:00
7:00 PM,69.8,44.6,40,30.01,6.2,ENE,5.8,-,N/A,,Partly Cloudy,60,2013-11-14 19:00:00
7:30 PM,68.0,46.4,46,30.01,6.2,East,4.6,-,N/A,,Partly Cloudy,90,2013-11-14 19:30:00
8:00 PM,68.0,46.4,46,30.04,6.2,NNE,4.6,-,N/A,,Partly Cloudy,30,2013-11-14 20:00:00
8:30 PM,68.0,50.0,52,30.04,6.2,NE,8.1,-,N/A,,Partly Cloudy,40,2013-11-14 20:30:00
9:00 PM,67,49,41,30.00,6,NE,6.9,,,,Scattered Clouds,40,2013-11-14 21:00:00
9:00 PM,68.0,48.2,49,30.04,6.2,NE,6.9,-,N/A,,Partly Cloudy,40,2013-11-14 21:00:00
9:30 PM,66.2,48.2,52,30.04,6.2,NE,6.9,-,N/A,,Partly Cloudy,50,2013-11-14 21:30:00
10:00 PM,64.4,46.4,52,30.04,-9999.0,East,5.8,-,N/A,,Clear,90,2013-11-14 22:00:00
10:30 PM,62.6,48.2,59,30.04,-9999.0,East,3.5,-,N/A,,Clear,90,2013-11-14 22:30:00
11:00 PM,62.6,48.2,59,30.04,-9999.0,East,3.5,-,N/A,,Clear,100,2013-11-14 23:00:00
11:30 PM,60.8,48.2,63,30.04,-9999.0,East,4.6,-,N/A,,Clear,80,2013-11-14 23:30:00